User: anonymous   Login
Location: Unspecified
(0.0000°N, 0.0000°E)
Time: 17:24:37
(UTC+00:00)
Language:

TSUBAME - Orbit

View from above orbital plane
View from above orbital plane
View from above satellite
View from above satellite

Ground track
Ground track

The orbit data is extracted from the following two-line orbital elements,

1 40302U 14070E   18116.45098558  .00001298  00000-0  67619-4 0  9995
2 40302  97.3374 184.3719 0040776 110.5133 306.4558 15.17038700191830
Epoch (UTC): 26 April 2018 10:49:25
Eccentricity: 0.0040776
inclination: 97.3374°
perigee height: 486 km
apogee height: 543 km
right ascension of ascending node: 184.3719°
argument of perigee: 110.5133°
revolutions per day: 15.17038700
mean anomaly at epoch: 306.4558°
orbit number at epoch: 19183

The dashed part of the orbit path shows where the satellite is in the earth's shadow,  

DLR